Regional Weather Roundup
Issued by NWS

Home | Current Version | Previous Version | Graphics & Text | Print | Product List | Glossary On
Versions: 1 2 3 4 5 6 7 8 9 10 11 12 13 14 15 16 17 18 19 20 21 22 23 24 25 26 27 28 29 30 31 32 33 34 35 36 37 38 39 40 41 42 43 44 45 46 47 48 49 50
429
ASUS45 KSLC 012310
RWRUT

UTAH REGIONAL WEATHER ROUNDUP
NATIONAL WEATHER SERVICE SALT LAKE CITY UT
500 PM MDT SUN MAY 01 2016

UTZ001>011-023>025-020000-

NORTHERN UTAH

CITY           SKY/WX    TMP DP  RH WIND       PRES   REMARKS
BRIGHAM CITY   PTSUNNY   59  20  22 E18G32    30.06F
HILL AFB       PTSUNNY   56  26  31 E23G32    30.05S
LOGAN          MOSUNNY   59  24  26 E12G32    30.09F
OGDEN          PTSUNNY   59  26  28 NE23G30   30.05S
PROVO AIRPORT  MOSUNNY   63  27  25 NW9       30.01F
SALT LAKE CITY PTSUNNY   64  25  22 E12       30.01F
VERNAL         SUNNY     55  26  32 N17G30    30.09F
WENDOVER       SUNNY     57  30  35 E14G20    30.07F
HEBER CITY     PTSUNNY   57  23  26 E7        30.04S

$$

UTZ012>022-026-027-020000-

SOUTHERN/CENTRAL UTAH

CITY           SKY/WX    TMP DP  RH WIND       PRES   REMARKS
BLANDING       CLOUDY    47  42  81 SW6       30.12S
BRYCE CANYON   LGT RAIN  43  33  68 E9        30.07S
CEDAR CITY     CLOUDY    55  35  47 VRB5      30.00S
DELTA          PTSUNNY   61  28  29 N10       30.00F
HANKSVILLE     CLOUDY    59  32  36 E6        30.04F
MILFORD        MOSUNNY   62  29  28 N12       29.98F
MOAB/CYNLANDS  CLOUDY    60  32  34 CALM      29.99F
PRICE          CLOUDY    55  25  31 E8G17     30.06F
ST GEORGE      PTCLDY    70  37  30 N13       29.95S

$$

REGIONAL REPORTS     COLORADO/ARIZONA

CITY           SKY/WX    TMP DP  RH WIND       PRES   REMARKS
CRAIG, CO      CLOUDY    57  25  29 E10       30.04F
GRAND JUNCTION CLOUDY    59  29  31 SE6       30.00F
RIFLE          CLOUDY    57  31  37 S17       30.00R
MONTROSE       CLOUDY    51  29  42 W3        30.07R
CORTEZ         CLOUDY    52  35  52 SE10      30.06S
PAGE, AZ       PTSUNNY   56  37  49 MISG      30.02F
GRAND CANYON   PTSUNNY   52  35  52 NE8       30.04S
KINGMAN        PTSUNNY   71  36  27 MISG      29.93F
FLAGSTAFF      PTSUNNY   45  41  86 S7        30.03S

$$

REGIONAL REPORTS    NEVADA/IDAHO/WYOMING

CITY           SKY/WX    TMP DP  RH WIND       PRES   REMARKS
LAS VEGAS, NV  PTSUNNY   74  34  23 NE3       29.87S
ELY            CLOUDY    50  31  48 N14       30.07S
ELKO           PTSUNNY   61  30  31 N13G18    30.05S
POCATELLO, ID  MOSUNNY   66  25  21 E10       30.08F
BURLEY         MOSUNNY   62  30  29 E10       30.06F
EVANSTON, WY   CLOUDY    43  21  41 E26G37    30.15F
ROCK SPRINGS   PTSUNNY   46  23  40 E24G36    30.18F
KEMMERER         N/A     45  19  36 E22G31    30.19S

$$




USA.gov is the U.S. government's official web portal to all federal, state and local government web resources and services.